QPF
0.00 0.00 0.00 0.00 0.00 0.00 0.00 0.00 0.00 0.00 0.00 0.00 0.00 0.00 0.00 0.00 0.00 0.01 0.00 0.00 0.00 0.01 0.01 0.02 0.03 0.05 0.05 0.05 0.05 0.01 0.00 0.03 0.06 0.05 0.00 0.00 0.04 0.09 0.09 0.14 0.04 0.00 0.00 0.00 0.00 0.00 0.00 0.00 0.00
0.00 0.00 0.00 0.00 0.00 0.00 0.00 0.00 0.00 0.00 0.00 0.00 0.00 0.00 0.00 0.00 0.00 0.00 0.00 0.00 0.00 0.01 0.02 0.05 0.05 0.09 0.13 0.05 0.04 0.02 0.02 0.04 0.06 0.04 0.03 0.00 0.02 0.10 0.12 0.15 0.04 0.00 0.00 0.00 0.00 0.00 0.00 0.00 0.00
0.00 0.00 0.00 0.00 0.00 0.00 0.00 0.00 0.00 0.00 0.00 0.00 0.00 0.00 0.00 0.00 0.00 0.00 0.00 0.00 0.00 0.00 0.01 0.03 0.05 0.08 0.23 0.17 0.06 0.03 0.02 0.02 0.01 0.04 0.04 0.01 0.01 0.07 0.14 0.14 0.06 0.00 0.00 0.00 0.00 0.00 0.00 0.00 0.00
0.00 0.00 0.00 0.00 0.00 0.00 0.00 0.00 0.00 0.00 0.00 0.00 0.00 0.00 0.00 0.00 0.00 0.00 0.00 0.00 0.00 0.00 0.01 0.03 0.05 0.06 0.27 0.32 0.30 0.13 0.03 0.00 0.00 0.00 0.00 0.01 0.00 0.03 0.12 0.13 0.08 0.07 0.00 0.00 0.00 0.00 0.00 0.00 0.00
0.00 0.00 0.00 0.00 0.00 0.00 0.00 0.00 0.00 0.00 0.00 0.00 0.00 0.00 0.00 0.00 0.00 0.00 0.00 0.00 0.00 0.00 0.00 0.01 0.07 0.07 0.10 0.34 0.82 0.28 0.09 0.02 0.02 0.00 0.00 0.00 0.01 0.00 0.04 0.09 0.06 0.06 0.00 0.00 0.00 0.00 0.00 0.00 0.00
0.00 0.00 0.00 0.00 0.00 0.00 0.00 0.00 0.00 0.00 0.00 0.00 0.00 0.00 0.00 0.00 0.00 0.00 0.00 0.00 0.00 0.00 0.00 0.01 0.03 0.08 0.06 0.18 0.32 0.43 0.19 0.08 0.10 0.08 0.05 0.01 0.01 0.01 0.00 0.01 0.03 0.03 0.01 0.00 0.00 0.00 0.00 0.00 0.00
0.00 0.00 0.00 0.00 0.00 0.00 0.00 0.00 0.00 0.00 0.00 0.00 0.00 0.00 0.00 0.00 0.00 0.00 0.00 0.00 0.00 0.00 0.00 0.01 0.03 0.04 0.06 0.11 0.30 0.65 0.30 0.07 0.03 0.06 0.09 0.04 0.03 0.03 0.02 0.01 0.03 0.05 0.05 0.00 0.00 0.00 0.00 0.00 0.00
0.00 0.00 0.00 0.00 0.00 0.00 0.00 0.00 0.00 0.00 0.00 0.00 0.00 0.00 0.00 0.00 0.00 0.00 0.00 0.00 0.00 0.00 0.00 0.00 0.01 0.02 0.01 0.04 0.11 0.30 0.33 0.13 0.02 0.03 0.04 0.02 0.00 0.02 0.05 0.05 0.04 0.09 0.10 0.03 0.00 0.00 0.00 0.00 0.00
0.00 0.00 0.00 0.00 0.00 0.00 0.00 0.00 0.00 0.00 0.00 0.00 0.00 0.00 0.00 0.00 0.00 0.00 0.00 0.00 0.00 0.00 0.00 0.00 0.00 0.00 0.00 0.01 0.07 0.08 0.17 0.13 0.07 0.03 0.03 0.00 0.00 0.00 0.03 0.04 0.04 0.09 0.09 0.05 0.01 0.00 0.00 0.00 0.00
0.00 0.00 0.00 0.00 0.00 0.00 0.00 0.00 0.00 0.00 0.00 0.00 0.00 0.00 0.00 0.00 0.00 0.00 0.00 0.00 0.00 0.00 0.00 0.00 0.00 0.00 0.00 0.00 0.01 0.03 0.07 0.08 0.09 0.11 0.10 0.04 0.00 0.00 0.01 0.08 0.05 0.06 0.26 0.14 0.03 0.02 0.00 0.00 0.00
0.00 0.00 0.00 0.00 0.00 0.00 0.00 0.00 0.00 0.00 0.00 0.00 0.00 0.00 0.00 0.00 0.00 0.00 0.00 0.00 0.00 0.00 0.00 0.00 0.00 0.00 0.00 0.00 0.00 0.01 0.01 0.03 0.07 0.11 0.14 0.09 0.01 0.00 0.02 0.03 0.07 0.07 0.16 0.19 0.11 0.04 0.00 0.00 0.00
0.00 0.00 0.00 0.00 0.00 0.00 0.00 0.00 0.00 0.00 0.00 0.00 0.00 0.00 0.00 0.00 0.00 0.00 0.00 0.00 0.00 0.00 0.00 0.00 0.00 0.00 0.00 0.00 0.00 0.00 0.00 0.00 0.00 0.04 0.25 0.34 0.09 0.01 0.03 0.01 0.00 0.02 0.05 0.07 0.07 0.04 0.01 0.00 0.00
0.00 0.00 0.00 0.00 0.00 0.00 0.00 0.00 0.00 0.00 0.00 0.00 0.00 0.00 0.00 0.00 0.00 0.00 0.00 0.00 0.00 0.00 0.00 0.00 0.00 0.00 0.00 0.00 0.00 0.00 0.00 0.00 0.00 0.01 0.11 0.50 0.49 0.10 0.07 0.01 0.00 0.01 0.01 0.01 0.01 0.01 0.01 0.00 0.00
0.00 0.00 0.00 0.00 0.00 0.00 0.00 0.00 0.00 0.00 0.00 0.00 0.00 0.00 0.00 0.00 0.00 0.00 0.00 0.00 0.00 0.00 0.00 0.00 0.00 0.00 0.00 0.00 0.00 0.00 0.00 0.00 0.00 0.01 0.02 0.10 0.28 0.21 0.12 0.05 0.02 0.01 0.00 0.00 0.00 0.00 0.00 0.00 0.00
0.00 0.00 0.00 0.00 0.00 0.00 0.00 0.00 0.00 0.00 0.00 0.00 0.00 0.00 0.00 0.00 0.00 0.00 0.00 0.00 0.00 0.00 0.00 0.00 0.00 0.00 0.00 0.00 0.00 0.00 0.00 0.00 0.00 0.01 0.03 0.03 0.07 0.08 0.13 0.06 0.02 0.01 0.01 0.00 0.00 0.00 0.00 0.00 0.00
0.00 0.00 0.00 0.00 0.00 0.00 0.00 0.00 0.00 0.00 0.00 0.00 0.00 0.00 0.00 0.00 0.00 0.00 0.00 0.00 0.00 0.00 0.00 0.00 0.00 0.00 0.00 0.00 0.00 0.00 0.00 0.00 0.00 0.01 0.05 0.04 0.03 0.08 0.09 0.04 0.02 0.03 0.03 0.00 0.00 0.00 0.00 0.00 0.00
0.00 0.00 0.00 0.00 0.00 0.00 0.00 0.00 0.00 0.00 0.00 0.00 0.00 0.00 0.00 0.00 0.00 0.00 0.00 0.00 0.00 0.00 0.00 0.00 0.00 0.00 0.00 0.00 0.00 0.00 0.00 0.00 0.00 0.07 0.11 0.11 0.05 0.12 0.10 0.03 0.01 0.10 0.06 0.01 0.00 0.00 0.00 0.00 0.00
0.00 0.00 0.00 0.00 0.00 0.00 0.00 0.00 0.00 0.00 0.00 0.00 0.00 0.00 0.00 0.00 0.00 0.00 0.00 0.00 0.00 0.00 0.00 0.00 0.00 0.00 0.00 0.00 0.00 0.00 0.00 0.00 0.01 0.15 0.16 0.17 0.12 0.15 0.13 0.04 0.06 0.08 0.04 0.02 0.00 0.00 0.00 0.00 0.00
0.00 0.00 0.00 0.00 0.00 0.00 0.00 0.00 0.00 0.00 0.00 0.00 0.00 0.00 0.00 0.00 0.00 0.00 0.00 0.00 0.00 0.00 0.00 0.00 0.00 0.00 0.00 0.00 0.00 0.00 0.00 0.01 0.03 0.20 0.45 0.35 0.22 0.21 0.17 0.06 0.05 0.04 0.04 0.01 0.00 0.00 0.00 0.00 0.00
0.00 0.00 0.00 0.00 0.00 0.00 0.00 0.00 0.00 0.00 0.00 0.00 0.00 0.00 0.00 0.00 0.00 0.00 0.00 0.00 0.00 0.00 0.00 0.00 0.00 0.00 0.00 0.00 0.00 0.00 0.00 0.01 0.07 0.14 0.44 0.46 0.26 0.16 0.20 0.15 0.02 0.01 0.02 0.03 0.02 0.00 0.00 0.00 0.00
0.00 0.00 0.00 0.00 0.00 0.00 0.00 0.00 0.00 0.00 0.00 0.00 0.00 0.00 0.00 0.00 0.00 0.00 0.00 0.00 0.00 0.00 0.00 0.00 0.00 0.00 0.00 0.00 0.00 0.00 0.02 0.01 0.04 0.16 0.15 0.20 0.16 0.08 0.13 0.11 0.07 0.02 0.01 0.03 0.02 0.01 0.01 0.00 0.00
0.00 0.00 0.00 0.00 0.00 0.00 0.00 0.00 0.00 0.00 0.00 0.00 0.00 0.00 0.00 0.00 0.00 0.00 0.00 0.00 0.00 0.00 0.00 0.00 0.00 0.00 0.00 0.00 0.00 0.00 0.01 0.05 0.05 0.14 0.11 0.08 0.05 0.06 0.06 0.07 0.05 0.07 0.03 0.03 0.01 0.01 0.02 0.02 0.00
0.00 0.00 0.00 0.00 0.00 0.00 0.00 0.00 0.00 0.00 0.00 0.00 0.00 0.00 0.00 0.00 0.00 0.00 0.00 0.00 0.00 0.00 0.00 0.00 0.00 0.00 0.00 0.00 0.00 0.00 0.00 0.06 0.07 0.07 0.09 0.04 0.02 0.02 0.04 0.06 0.03 0.07 0.14 0.05 0.02 0.02 0.02 0.01 0.00
0.00 0.00 0.00 0.00 0.00 0.00 0.00 0.00 0.00 0.00 0.00 0.00 0.00 0.00 0.00 0.00 0.00 0.00 0.00 0.00 0.00 0.00 0.00 0.00 0.00 0.00 0.00 0.00 0.00 0.00 0.00 0.03 0.06 0.05 0.04 0.05 0.03 0.01 0.01 0.00 0.01 0.02 0.17 0.26 0.09 0.09 0.07 0.04 0.00
0.00 0.00 0.00 0.00 0.00 0.00 0.00 0.00 0.00 0.00 0.00 0.00 0.00 0.00 0.00 0.00 0.00 0.00 0.00 0.00 0.00 0.00 0.00 0.00 0.00 0.00 0.00 0.00 0.00 0.00 0.00 0.00 0.02 0.04 0.04 0.05 0.05 0.01 0.00 0.00 0.00 0.01 0.03 0.16 0.25 0.16 0.10 0.04 0.00
0.00 0.00 0.00 0.00 0.00 0.00 0.00 0.00 0.00 0.00 0.00 0.00 0.00 0.00 0.00 0.00 0.00 0.00 0.00 0.00 0.00 0.00 0.00 0.00 0.00 0.00 0.00 0.00 0.00 0.00 0.00 0.00 0.00 0.00 0.02 0.05 0.07 0.02 0.01 0.00 0.00 0.00 0.01 0.04 0.10 0.15 0.11 0.04 0.01
0.00 0.00 0.00 0.00 0.00 0.00 0.00 0.00 0.00 0.00 0.00 0.00 0.00 0.00 0.00 0.00 0.00 0.00 0.00 0.00 0.00 0.00 0.00 0.00 0.00 0.00 0.00 0.00 0.00 0.00 0.00 0.00 0.00 0.00 0.00 0.01 0.04 0.06 0.03 0.03 0.01 0.00 0.01 0.02 0.03 0.03 0.03 0.02 0.01
0.00 0.00 0.00 0.00 0.00 0.00 0.00 0.00 0.00 0.00 0.00 0.00 0.00 0.00 0.00 0.00 0.00 0.00 0.00 0.00 0.00 0.00 0.00 0.00 0.00 0.00 0.00 0.00 0.00 0.00 0.00 0.00 0.00 0.00 0.00 0.00 0.00 0.02 0.05 0.05 0.05 0.02 0.06 0.05 0.04 0.04 0.05 0.05 0.06
0.00 0.00 0.00 0.00 0.00 0.00 0.00 0.00 0.00 0.00 0.00 0.00 0.00 0.00 0.00 0.00 0.00 0.00 0.00 0.00 0.00 0.00 0.00 0.00 0.00 0.00 0.00 0.00 0.00 0.00 0.00 0.00 0.00 0.00 0.00 0.00 0.00 0.00 0.00 0.01 0.04 0.05 0.09 0.17 0.20 0.18 0.12 0.07 0.10
0.00 0.00 0.00 0.00 0.00 0.00 0.00 0.00 0.00 0.00 0.00 0.00 0.00 0.00 0.00 0.00 0.00 0.00 0.00 0.00 0.00 0.00 0.00 0.00 0.00 0.00 0.00 0.00 0.00 0.00 0.00 0.00 0.00 0.00 0.00 0.00 0.00 0.00 0.00 0.00 0.02 0.04 0.07 0.09 0.13 0.18 0.20 0.11 0.08
MSLP
1013.19 1012.52 1012.25 1011.96 1012.27 1011.41 1010.99 1011.56 1011.71 1011.95 1012.58 1013.53 1013.77 1014.54 1015.74 1017.04 1017.85 1018.97 1019.00 1019.42 1019.20 1018.46 1017.53 1016.46 1015.61 1015.57 1015.51 1015.56 1015.78 1015.77 1015.84 1015.94 1016.04 1016.16 1016.37 1016.58 1016.94 1017.17 1017.20 1017.44 1017.42 1017.57 1017.67 1018.07 1018.14 1018.47 1018.79 1018.99 1019.26
1013.15 1012.10 1012.05 1011.44 1011.70 1011.27 1011.79 1012.08 1012.50 1013.17 1013.81 1014.08 1014.50 1015.64 1016.54 1018.21 1018.93 1019.40 1019.47 1019.73 1019.30 1018.70 1017.94 1017.02 1016.29 1015.90 1015.75 1015.50 1015.52 1015.69 1015.84 1016.03 1016.10 1016.25 1016.30 1016.58 1016.92 1017.21 1017.39 1017.59 1017.57 1017.66 1018.01 1018.30 1018.57 1018.91 1019.13 1019.29 1019.55
1013.30 1012.22 1012.04 1011.18 1011.23 1012.21 1012.59 1013.07 1013.46 1013.60 1014.15 1014.78 1015.74 1016.82 1017.97 1019.24 1019.47 1019.85 1019.89 1019.39 1019.30 1018.92 1018.29 1017.68 1016.81 1016.06 1015.85 1015.24 1015.50 1015.48 1015.73 1015.87 1016.06 1016.29 1016.44 1016.61 1016.81 1017.16 1017.41 1017.75 1017.75 1017.87 1018.17 1018.54 1018.86 1019.03 1019.45 1019.69 1019.88
1012.43 1011.99 1011.69 1011.52 1011.98 1012.95 1013.41 1013.84 1014.18 1013.91 1014.30 1015.18 1016.16 1017.69 1019.17 1019.87 1019.75 1019.78 1019.48 1019.22 1019.49 1019.28 1018.86 1018.18 1017.51 1016.89 1016.39 1015.97 1015.91 1015.88 1015.59 1015.78 1016.09 1016.25 1016.40 1016.71 1016.81 1017.11 1017.47 1017.83 1017.99 1018.03 1018.39 1018.76 1019.14 1019.34 1019.66 1020.01 1020.25
1012.43 1011.70 1011.42 1011.54 1012.55 1013.52 1014.21 1014.75 1014.85 1014.75 1015.17 1015.93 1016.26 1017.89 1019.13 1019.74 1019.61 1019.68 1019.47 1019.38 1019.77 1019.67 1019.20 1018.64 1018.26 1017.59 1017.29 1016.95 1015.85 1015.84 1016.39 1015.88 1016.17 1016.37 1016.56 1016.74 1016.92 1017.11 1017.31 1017.85 1018.04 1018.32 1018.40 1019.06 1019.37 1019.74 1020.07 1020.32 1020.63
1012.17 1011.67 1011.55 1011.87 1012.85 1013.92 1014.66 1015.43 1015.41 1015.38 1015.77 1016.81 1017.22 1017.84 1019.03 1019.22 1019.54 1019.56 1019.33 1019.51 1019.79 1019.81 1019.53 1019.31 1018.72 1018.35 1017.77 1017.55 1017.23 1016.95 1016.55 1016.28 1016.64 1016.56 1016.68 1016.85 1017.02 1017.21 1017.37 1017.64 1018.10 1018.27 1018.33 1019.06 1019.52 1019.84 1020.30 1020.60 1020.78
1012.22 1011.98 1012.30 1012.67 1013.38 1014.34 1015.21 1015.88 1016.25 1016.54 1016.52 1017.44 1018.10 1018.10 1018.79 1019.53 1019.66 1019.58 1019.41 1019.15 1019.47 1019.78 1019.64 1019.46 1019.17 1018.76 1018.24 1017.89 1017.54 1017.44 1016.77 1016.80 1017.16 1016.72 1016.82 1016.96 1017.10 1017.30 1017.49 1017.68 1018.00 1018.28 1018.48 1019.06 1019.54 1019.91 1020.40 1020.75 1021.02
1012.64 1012.51 1012.92 1013.67 1014.08 1015.14 1016.16 1016.47 1016.93 1017.27 1017.59 1017.79 1018.39 1018.73 1019.12 1019.74 1019.72 1019.55 1019.40 1019.45 1019.57 1019.69 1019.63 1019.60 1019.52 1019.28 1018.35 1018.18 1017.74 1017.67 1017.14 1017.26 1017.15 1016.99 1016.94 1017.23 1017.24 1017.27 1017.40 1017.79 1017.99 1018.34 1018.63 1019.06 1019.67 1020.08 1020.42 1020.92 1021.21
1013.10 1013.12 1013.70 1014.74 1015.21 1016.04 1016.47 1016.91 1017.20 1017.70 1017.71 1018.07 1018.84 1019.15 1019.67 1019.83 1019.67 1019.70 1019.85 1019.75 1019.87 1020.01 1019.99 1019.65 1019.53 1019.29 1019.03 1018.48 1017.99 1017.94 1017.44 1017.68 1017.27 1017.21 1017.12 1017.17 1017.10 1017.07 1017.17 1017.54 1017.99 1018.42 1018.79 1019.23 1019.80 1020.20 1020.59 1021.03 1021.40
1013.69 1014.05 1015.40 1016.39 1016.63 1016.79 1016.99 1017.40 1017.64 1017.67 1017.60 1017.99 1018.62 1018.96 1019.48 1019.73 1019.83 1020.07 1020.13 1020.20 1020.19 1020.23 1020.22 1020.08 1019.97 1019.74 1019.11 1018.48 1018.27 1018.18 1017.79 1017.51 1017.69 1017.33 1017.23 1017.11 1016.87 1016.79 1016.79 1017.35 1017.93 1018.55 1019.08 1019.31 1019.75 1020.38 1020.79 1021.19 1021.53
1014.88 1015.61 1016.61 1017.21 1017.67 1017.57 1017.54 1017.58 1017.91 1018.02 1018.00 1018.56 1019.21 1019.54 1019.87 1019.91 1020.11 1020.21 1020.27 1020.43 1020.47 1020.45 1020.48 1020.38 1020.30 1019.81 1019.46 1018.81 1018.59 1018.45 1017.94 1017.60 1017.64 1017.59 1017.33 1017.15 1016.80 1016.54 1016.82 1017.50 1018.24 1018.79 1019.38 1019.64 1019.82 1020.27 1020.86 1021.07 1021.39
1016.16 1016.91 1017.23 1017.90 1018.27 1018.08 1017.98 1018.12 1018.09 1018.30 1018.55 1019.05 1019.40 1019.76 1019.95 1019.97 1020.15 1020.34 1020.33 1020.38 1020.43 1020.47 1020.43 1020.44 1020.47 1020.13 1019.74 1019.43 1018.95 1018.58 1018.20 1017.69 1017.56 1017.35 1017.19 1016.98 1017.41 1016.67 1016.86 1017.44 1017.98 1018.67 1019.34 1019.76 1020.20 1020.59 1020.42 1020.96 1021.17
1016.80 1017.48 1017.82 1018.45 1018.62 1018.49 1018.49 1018.32 1018.34 1018.36 1018.43 1019.01 1019.41 1019.69 1019.69 1019.77 1019.94 1020.20 1020.25 1020.28 1020.33 1020.37 1020.43 1020.37 1020.43 1020.25 1019.86 1019.53 1018.87 1018.53 1018.32 1018.03 1017.76 1017.44 1017.31 1016.94 1017.28 1017.22 1016.99 1017.32 1017.71 1018.29 1018.99 1019.64 1020.08 1020.21 1020.31 1020.80 1021.16
1017.44 1017.63 1018.05 1018.50 1018.47 1018.50 1018.72 1018.35 1018.40 1017.90 1018.32 1018.87 1019.02 1019.18 1019.34 1019.43 1019.58 1019.87 1020.14 1020.30 1020.28 1020.29 1020.21 1020.20 1020.23 1020.13 1020.02 1019.48 1018.95 1018.53 1018.15 1017.98 1017.60 1017.50 1017.33 1017.03 1016.86 1017.11 1017.13 1017.18 1017.58 1018.09 1018.59 1019.28 1019.60 1019.94 1020.28 1020.71 1021.15
1017.65 1017.77 1018.04 1018.23 1018.44 1018.58 1018.75 1018.37 1017.91 1017.75 1018.23 1018.59 1018.58 1018.55 1018.76 1018.90 1019.07 1019.40 1019.91 1020.30 1020.31 1020.23 1020.00 1019.83 1019.70 1019.75 1019.76 1019.39 1018.97 1018.59 1018.20 1017.82 1017.64 1016.94 1016.49 1016.21 1016.41 1016.01 1016.57 1016.82 1017.47 1017.73 1018.43 1019.20 1019.52 1019.94 1020.37 1020.76 1021.05
1017.61 1017.82 1017.87 1018.35 1018.58 1018.74 1018.77 1017.76 1017.23 1017.53 1017.95 1018.11 1018.02 1017.98 1018.13 1018.31 1018.65 1019.03 1019.53 1019.91 1020.09 1020.17 1020.11 1019.88 1019.64 1019.59 1019.22 1019.05 1018.73 1018.49 1018.23 1017.76 1017.38 1016.78 1016.06 1015.09 1015.32 1015.51 1015.86 1016.30 1016.99 1017.63 1018.30 1018.95 1019.50 1020.01 1020.48 1021.02 1021.30
1017.65 1017.85 1018.17 1018.59 1018.85 1018.92 1018.75 1017.85 1017.03 1017.07 1017.51 1017.84 1017.67 1017.59 1017.59 1017.93 1018.13 1018.54 1019.18 1019.69 1019.78 1019.88 1019.78 1019.75 1019.59 1019.53 1019.31 1018.82 1018.53 1018.35 1018.05 1017.85 1017.44 1016.78 1015.83 1014.06 1014.48 1014.90 1015.51 1015.77 1016.40 1017.38 1017.93 1018.55 1019.24 1019.99 1020.45 1021.02 1021.28
1018.21 1018.20 1018.52 1018.76 1018.99 1019.03 1018.85 1017.76 1016.75 1016.45 1016.84 1017.28 1017.27 1017.17 1017.26 1017.41 1017.83 1018.42 1019.11 1019.55 1019.66 1019.65 1019.61 1019.67 1019.67 1019.53 1019.15 1018.88 1018.76 1018.42 1018.05 1017.88 1017.22 1016.64 1015.60 1014.23 1014.09 1014.36 1015.10 1015.43 1016.05 1016.99 1017.96 1018.51 1019.13 1019.86 1020.54 1020.83 1021.16
1019.21 1019.01 1019.20 1018.90 1019.16 1019.47 1018.48 1017.61 1016.74 1016.28 1016.58 1016.74 1016.86 1016.82 1016.97 1017.07 1017.51 1018.08 1018.60 1019.03 1019.45 1019.48 1019.53 1019.70 1019.72 1019.64 1019.41 1019.10 1018.85 1018.61 1018.26 1017.79 1017.37 1017.03 1016.04 1015.14 1013.97 1014.36 1015.02 1015.12 1015.55 1016.66 1017.64 1018.34 1018.85 1019.66 1020.19 1020.53 1020.88
1020.16 1019.73 1019.98 1019.83 1019.75 1020.00 1018.82 1017.70 1016.76 1016.16 1016.20 1016.46 1016.72 1016.97 1017.03 1017.21 1017.32 1017.74 1018.26 1018.74 1019.19 1019.49 1019.63 1019.66 1019.78 1019.82 1019.64 1019.31 1018.92 1018.93 1018.58 1017.95 1017.38 1017.32 1016.83 1015.80 1014.28 1014.77 1015.00 1015.55 1015.96 1016.63 1017.48 1018.13 1018.54 1019.15 1019.87 1020.36 1020.63
1021.06 1021.11 1021.17 1021.52 1020.63 1019.62 1019.46 1017.60 1016.26 1015.95 1016.09 1016.26 1016.47 1016.75 1016.85 1016.93 1017.23 1017.70 1018.28 1018.71 1019.07 1019.48 1019.69 1019.70 1019.80 1019.87 1019.71 1019.49 1019.16 1018.81 1018.45 1018.08 1017.71 1017.48 1017.30 1016.82 1015.85 1015.54 1015.64 1015.81 1016.11 1016.75 1017.44 1018.07 1018.38 1018.84 1019.43 1020.11 1020.59
1022.18 1022.50 1022.27 1021.99 1021.79 1021.11 1020.11 1018.62 1016.42 1015.88 1015.75 1015.87 1016.02 1016.37 1016.63 1016.81 1017.08 1017.52 1018.11 1018.74 1019.26 1019.67 1019.84 1019.84 1019.80 1019.80 1019.67 1019.53 1019.34 1019.07 1019.12 1019.05 1019.24 1018.66 1018.17 1017.77 1016.92 1016.43 1016.14 1016.49 1016.56 1016.91 1017.22 1017.77 1018.16 1018.57 1019.14 1019.70 1020.36
1023.00 1023.18 1023.18 1022.75 1022.56 1022.15 1020.63 1019.98 1016.22 1015.70 1015.47 1015.55 1015.68 1016.08 1016.38 1016.71 1017.18 1017.67 1018.19 1018.83 1019.33 1019.76 1020.10 1019.99 1019.89 1019.71 1019.86 1019.68 1019.50 1019.40 1019.19 1019.06 1018.97 1018.43 1018.58 1018.38 1017.85 1017.07 1016.84 1017.05 1017.00 1017.11 1017.18 1017.58 1017.83 1018.44 1018.92 1019.38 1020.02
1023.43 1023.46 1023.63 1023.28 1023.19 1023.04 1021.41 1020.73 1016.59 1015.40 1015.07 1015.18 1015.38 1015.72 1016.11 1016.55 1017.15 1017.56 1018.14 1018.93 1019.39 1019.78 1020.17 1020.21 1020.08 1019.93 1019.96 1019.95 1019.88 1019.70 1019.50 1018.98 1018.36 1018.95 1019.04 1018.73 1018.34 1017.86 1017.61 1017.54 1017.32 1017.10 1016.94 1017.46 1017.66 1018.11 1018.49 1019.08 1019.47
1023.77 1023.98 1024.16 1024.32 1024.02 1023.18 1021.82 1020.78 1016.48 1015.03 1014.76 1014.98 1015.24 1015.58 1016.02 1016.47 1017.04 1017.48 1018.08 1018.87 1019.50 1019.92 1020.30 1020.31 1020.25 1020.15 1020.09 1020.15 1020.12 1019.96 1019.58 1019.42 1018.98 1018.90 1018.96 1018.99 1018.97 1018.50 1018.55 1018.19 1017.91 1017.55 1017.25 1017.08 1017.46 1018.12 1018.61 1018.98 1019.34
1024.33 1024.63 1025.01 1025.47 1025.38 1024.05 1022.06 1019.75 1016.12 1015.07 1014.91 1015.17 1015.27 1015.60 1016.04 1016.52 1016.99 1017.47 1018.15 1018.90 1019.48 1019.96 1020.37 1020.37 1020.34 1020.33 1020.32 1020.39 1020.33 1020.23 1020.01 1019.53 1019.17 1019.13 1019.06 1019.20 1019.19 1018.75 1018.82 1018.22 1018.11 1017.89 1017.43 1017.04 1017.31 1017.84 1018.50 1018.99 1019.33
1024.90 1025.00 1025.17 1025.46 1026.07 1024.85 1021.40 1018.28 1015.93 1015.29 1015.15 1015.41 1015.53 1015.68 1016.10 1016.60 1017.17 1017.65 1018.31 1018.95 1019.57 1020.00 1020.45 1020.63 1020.49 1020.51 1020.50 1020.56 1020.50 1020.20 1020.01 1019.87 1019.71 1019.63 1019.30 1019.26 1019.22 1018.91 1018.87 1018.65 1018.59 1017.98 1017.57 1017.38 1017.44 1017.87 1018.48 1018.86 1019.33
1025.28 1025.28 1025.39 1025.71 1026.02 1025.09 1021.83 1019.32 1016.92 1015.83 1015.46 1015.62 1015.86 1016.15 1016.37 1016.75 1017.40 1017.86 1018.40 1019.03 1019.74 1020.16 1020.51 1020.66 1020.49 1020.70 1020.70 1020.65 1020.67 1020.52 1020.35 1020.25 1020.06 1019.69 1019.83 1019.80 1019.49 1019.14 1019.03 1018.87 1018.27 1018.22 1017.89 1017.65 1017.79 1018.02 1018.48 1018.90 1019.24
1025.69 1025.48 1025.54 1025.65 1025.83 1025.55 1023.69 1019.79 1017.25 1016.27 1015.79 1015.93 1016.26 1016.79 1017.19 1017.43 1017.87 1018.32 1018.69 1019.27 1019.89 1020.29 1020.51 1020.90 1020.75 1020.81 1020.84 1020.86 1020.83 1020.77 1020.75 1020.47 1020.21 1020.24 1020.18 1019.96 1019.65 1019.15 1018.88 1018.83 1018.73 1018.69 1018.40 1018.12 1017.96 1018.09 1018.42 1018.84 1019.29
1025.34 1025.15 1025.11 1025.67 1026.12 1025.84 1024.32 1020.11 1017.51 1017.13 1016.79 1016.79 1016.96 1017.34 1017.90 1018.16 1018.33 1018.79 1019.15 1019.52 1020.04 1020.43 1020.74 1020.85 1021.13 1020.93 1020.79 1020.65 1020.70 1020.91 1020.89 1020.94 1021.12 1020.90 1020.64 1020.34 1019.88 1019.48 1019.29 1019.30 1019.16 1018.93 1018.74 1018.51 1018.47 1018.75 1018.94 1019.29 1020.05
Thickness
5727 5730 5732 5723 5695 5700 5698 5691 5704 5693 5689 5692 5694 5682 5669 5657 5650 5643 5650 5647 5649 5653 5661 5671 5677 5678 5676 5677 5675 5677 5678 5678 5676 5677 5676 5675 5675 5675 5677 5676 5676 5677 5678 5676 5677 5676 5675 5674 5672
5727 5733 5727 5719 5691 5686 5684 5697 5686 5685 5686 5689 5685 5675 5664 5644 5645 5640 5640 5639 5642 5646 5653 5662 5668 5670 5671 5673 5672 5672 5673 5672 5673 5672 5675 5672 5671 5672 5672 5671 5672 5674 5673 5672 5671 5670 5670 5669 5667
5725 5731 5713 5709 5700 5674 5678 5686 5680 5688 5687 5680 5668 5661 5649 5636 5638 5633 5634 5636 5636 5638 5644 5651 5659 5664 5667 5673 5669 5670 5668 5669 5669 5668 5668 5668 5668 5667 5667 5666 5667 5668 5668 5667 5666 5667 5664 5663 5663
5725 5722 5717 5695 5687 5684 5680 5680 5681 5684 5685 5678 5665 5647 5636 5633 5632 5629 5631 5630 5627 5629 5632 5640 5647 5653 5657 5663 5661 5660 5664 5664 5663 5663 5664 5662 5664 5663 5663 5661 5661 5663 5661 5660 5659 5660 5659 5658 5657
5721 5717 5700 5699 5685 5684 5680 5676 5677 5672 5669 5662 5662 5639 5630 5626 5628 5625 5623 5620 5617 5618 5622 5627 5633 5640 5644 5645 5652 5649 5649 5655 5655 5656 5656 5657 5659 5660 5661 5658 5657 5657 5658 5653 5653 5652 5652 5652 5651
5706 5713 5693 5688 5683 5680 5678 5671 5670 5667 5664 5649 5642 5638 5629 5629 5619 5617 5615 5610 5605 5605 5607 5612 5619 5625 5631 5633 5635 5637 5639 5644 5642 5649 5650 5651 5653 5655 5656 5655 5653 5655 5656 5651 5649 5649 5647 5646 5647
5704 5699 5686 5690 5681 5674 5668 5668 5654 5651 5650 5637 5633 5627 5621 5615 5610 5606 5604 5602 5597 5592 5593 5597 5605 5609 5617 5621 5625 5628 5634 5634 5631 5638 5642 5645 5647 5649 5651 5651 5651 5652 5653 5649 5647 5646 5643 5643 5642
5704 5699 5690 5680 5673 5664 5659 5657 5652 5643 5636 5639 5628 5615 5608 5601 5598 5594 5592 5587 5583 5580 5582 5584 5589 5591 5606 5606 5613 5618 5622 5623 5625 5629 5634 5635 5640 5644 5647 5647 5647 5648 5650 5647 5643 5642 5642 5640 5639
5708 5687 5678 5671 5668 5658 5659 5648 5650 5642 5635 5631 5619 5609 5599 5591 5587 5579 5573 5571 5569 5568 5568 5572 5576 5580 5585 5593 5599 5605 5613 5609 5619 5621 5625 5629 5633 5639 5644 5645 5643 5643 5644 5641 5640 5638 5638 5635 5635
5690 5681 5666 5662 5658 5652 5653 5645 5640 5636 5633 5625 5615 5609 5596 5584 5573 5564 5560 5557 5556 5555 5557 5558 5561 5565 5572 5581 5587 5591 5598 5604 5609 5615 5619 5623 5630 5635 5641 5641 5640 5637 5637 5637 5635 5633 5632 5631 5631
5680 5666 5663 5657 5649 5650 5647 5644 5639 5628 5623 5612 5598 5587 5575 5565 5558 5555 5553 5548 5545 5544 5544 5547 5548 5554 5558 5566 5572 5577 5586 5595 5602 5608 5614 5618 5626 5631 5636 5636 5633 5632 5630 5631 5631 5630 5628 5628 5629
5662 5662 5660 5652 5645 5644 5640 5637 5631 5624 5616 5606 5593 5577 5563 5556 5553 5549 5546 5542 5538 5536 5535 5536 5536 5540 5545 5550 5556 5565 5572 5584 5593 5602 5608 5615 5615 5626 5629 5630 5630 5629 5626 5627 5622 5623 5627 5624 5627
5659 5654 5653 5646 5641 5640 5637 5630 5626 5617 5615 5601 5586 5570 5562 5557 5552 5546 5541 5536 5532 5528 5526 5527 5526 5528 5531 5536 5544 5552 5560 5570 5582 5592 5598 5604 5607 5611 5620 5622 5625 5626 5624 5622 5621 5623 5624 5623 5622
5657 5653 5648 5644 5642 5639 5628 5627 5622 5623 5613 5597 5584 5571 5565 5559 5552 5543 5534 5528 5526 5524 5521 5518 5516 5515 5515 5520 5530 5541 5548 5559 5573 5582 5591 5596 5599 5604 5612 5617 5620 5621 5622 5621 5621 5622 5622 5621 5619
5654 5647 5643 5643 5640 5633 5627 5623 5619 5621 5608 5594 5585 5576 5569 5562 5554 5543 5532 5522 5519 5514 5512 5510 5507 5505 5502 5505 5516 5531 5538 5549 5561 5576 5589 5596 5601 5610 5609 5614 5614 5618 5618 5615 5617 5617 5617 5617 5615
5650 5645 5639 5637 5634 5630 5624 5625 5626 5619 5606 5594 5587 5578 5570 5565 5556 5544 5533 5522 5513 5505 5500 5497 5496 5496 5498 5500 5510 5520 5530 5541 5555 5569 5583 5598 5603 5608 5610 5613 5613 5613 5612 5612 5612 5613 5612 5610 5610
5645 5634 5636 5632 5630 5626 5622 5615 5628 5622 5607 5594 5585 5578 5573 5563 5556 5547 5534 5522 5512 5502 5498 5494 5492 5491 5493 5499 5508 5517 5526 5534 5546 5561 5578 5599 5602 5606 5607 5612 5612 5609 5609 5610 5609 5607 5607 5606 5607
5637 5633 5634 5629 5627 5621 5612 5616 5629 5627 5611 5596 5587 5580 5574 5566 5556 5543 5530 5519 5508 5499 5495 5492 5490 5490 5494 5499 5504 5513 5522 5529 5542 5555 5572 5592 5600 5605 5605 5609 5609 5606 5605 5607 5607 5604 5602 5603 5603
5632 5630 5625 5633 5627 5614 5621 5620 5624 5624 5614 5602 5593 5583 5573 5567 5554 5543 5531 5520 5508 5498 5492 5489 5489 5491 5492 5496 5502 5508 5516 5524 5535 5545 5563 5580 5596 5602 5600 5607 5608 5603 5602 5603 5604 5601 5601 5601 5599
5622 5625 5616 5622 5621 5613 5616 5616 5621 5624 5616 5606 5593 5579 5570 5560 5556 5544 5533 5520 5507 5496 5488 5486 5487 5488 5490 5494 5500 5502 5510 5520 5530 5539 5553 5573 5590 5592 5596 5597 5599 5600 5598 5599 5601 5601 5599 5597 5597
5615 5612 5604 5599 5609 5618 5608 5617 5627 5625 5616 5607 5596 5587 5575 5566 5554 5543 5530 5519 5508 5496 5488 5486 5485 5484 5486 5489 5494 5500 5508 5516 5524 5535 5546 5557 5571 5579 5587 5590 5592 5593 5593 5594 5598 5599 5598 5593 5594
5609 5599 5599 5601 5594 5597 5612 5583 5626 5619 5614 5608 5600 5588 5579 5568 5558 5545 5532 5518 5505 5496 5489 5485 5484 5484 5484 5486 5489 5495 5498 5504 5508 5522 5534 5545 5560 5569 5579 5584 5585 5587 5590 5593 5597 5598 5596 5595 5590
5598 5592 5591 5596 5592 5590 5606 5581 5632 5624 5616 5608 5601 5592 5582 5571 5558 5544 5531 5516 5505 5495 5488 5484 5484 5483 5479 5480 5482 5486 5494 5500 5507 5518 5524 5534 5547 5561 5570 5573 5577 5582 5587 5591 5593 5594 5594 5593 5589
5590 5591 5589 5594 5588 5553 5598 5583 5620 5624 5625 5616 5607 5597 5586 5574 5560 5548 5530 5515 5503 5494 5488 5483 5481 5481 5476 5474 5476 5483 5490 5502 5513 5513 5518 5528 5540 5551 5560 5566 5573 5579 5585 5588 5591 5591 5591 5589 5589
5587 5586 5559 5573 5558 5567 5590 5571 5611 5638 5627 5620 5611 5603 5592 5578 5564 5550 5536 5515 5502 5494 5490 5486 5482 5480 5477 5472 5477 5482 5490 5499 5509 5514 5518 5524 5530 5543 5549 5558 5565 5572 5580 5586 5587 5587 5586 5585 5585
5583 5579 5561 5570 5569 5569 5579 5585 5623 5631 5626 5619 5614 5605 5595 5581 5568 5555 5540 5517 5503 5499 5494 5489 5484 5481 5479 5476 5481 5487 5493 5500 5507 5512 5517 5519 5526 5536 5542 5553 5560 5567 5576 5583 5584 5586 5584 5582 5581
5579 5572 5570 5544 5502 5534 5594 5617 5637 5632 5626 5617 5611 5608 5596 5588 5572 5561 5543 5525 5513 5507 5499 5493 5488 5485 5484 5482 5483 5489 5495 5499 5504 5508 5513 5516 5523 5531 5538 5547 5554 5565 5572 5578 5582 5582 5580 5579 5577
5563 5567 5562 5541 5554 5556 5585 5600 5601 5622 5621 5617 5612 5604 5601 5592 5579 5566 5550 5534 5521 5513 5506 5500 5495 5489 5486 5488 5487 5491 5493 5497 5502 5508 5509 5512 5519 5528 5536 5543 5555 5560 5568 5572 5575 5577 5576 5574 5573
5551 5550 5560 5561 5554 5542 5537 5586 5620 5631 5631 5623 5615 5606 5597 5589 5577 5566 5555 5541 5528 5520 5514 5506 5502 5496 5492 5490 5491 5491 5493 5499 5503 5505 5508 5513 5519 5528 5536 5542 5548 5553 5559 5565 5571 5573 5572 5570 5568
5553 5567 5570 5545 5547 5529 5535 5566 5616 5613 5614 5615 5612 5608 5598 5590 5581 5569 5559 5548 5535 5527 5519 5514 5508 5505 5502 5501 5500 5498 5497 5498 5498 5502 5508 5514 5520 5525 5532 5537 5543 5549 5553 5558 5563 5563 5562 5560 5553